カタリナ-パンスターズ彗星

299P/Catalina-PanSTARRS (2024)

English version
Home page
Updated on June 13, 2021

---------------------------------------------------------------------

・ プロフィール

・ 軌道要素

Epoch 2024 May 10.0 TT = JDT 2460440.5
T 2024 Apr. 30.34580 TT                                 MPCW
q   3.1563638            (2000.0)            P               Q
n   0.10716882     Peri.  323.68657     -0.55988219     +0.80842238
a   4.3895878      Node   271.58169     -0.71096425     -0.58129646
e   0.2809430      Incl.   10.46807     -0.42551353     -0.09245367
P   9.20
From 254 observations 2005 Mar. 11-2016 Aug. 4, mean residual 0".5.

・ 光度変化

        m1 = 7.5 + 5 logΔ + 15.0 log r

---------------------------------------------------------------------

軌道要素はM.P.E.C. 2016-Q04に掲載されたものです。
光度グラフはComet for Windowsで作成したものです。

---------------------------------------------------------------------

Copyright(C) Seiichi Yoshida (comet@aerith.net). All rights reserved.